Location: Altleiningen
(49.5078°N, 8.0741°E)
Time: 04:57:07
(UTC+00:00)

MetOp-A - Pass Details

Date: 14 June 2025
Orbit: 521 x 774 km, 98.3° (Epoch: 12 July)

Event Time Altitude Azimuth Distance (km) Brightness Sun altitude
Exits shadow 22:10:46 25° 155° (SSE) 1,420 4.8 -15.2°
Maximum altitude 22:13:36 77° 73° (ENE) 711 3.8 -15.3°
Drops below altitude 10° 22:18:07 10° 348° (NNW) 2,067 7.6 -15.5°
Sets 22:20:16 0° 347° (NNW) 2,941 8.9 -15.6°
